TimeCST,TemperatureF,Dew PointF,Humidity,Sea Level PressureIn,VisibilityMPH,Wind Direction,Wind SpeedMPH,Gust SpeedMPH,PrecipitationIn,Events,Conditions,WindDirDegrees,DateUTC
12:15 AM,34.5,28.4,78,29.94,10.0,WNW,6.9,-,N/A,,Clear,290,2012-11-30 06:15:00
12:35 AM,34.7,28.4,78,29.95,10.0,WNW,10.4,-,N/A,,Clear,300,2012-11-30 06:35:00
12:55 AM,34.7,28.4,78,29.96,10.0,WNW,10.4,-,N/A,,Clear,300,2012-11-30 06:55:00
1:15 AM,33.4,27.9,80,29.97,10.0,WNW,10.4,-,N/A,,Clear,290,2012-11-30 07:15:00
1:35 AM,32.7,27.5,81,29.97,10.0,WNW,12.7,-,N/A,,Clear,300,2012-11-30 07:35:00
1:55 AM,32.0,27.1,82,29.98,10.0,WNW,8.1,-,N/A,,Clear,300,2012-11-30 07:55:00
2:15 AM,31.1,26.6,83,30.00,10.0,WNW,11.5,-,N/A,,Clear,300,2012-11-30 08:15:00
2:35 AM,30.2,26.1,85,30.00,10.0,NW,9.2,-,N/A,,Clear,310,2012-11-30 08:35:00
2:55 AM,29.8,25.5,84,30.02,10.0,NW,11.5,17.3,N/A,,Clear,310,2012-11-30 08:55:00
3:15 AM,29.1,24.8,84,30.02,10.0,NW,9.2,-,N/A,,Clear,320,2012-11-30 09:15:00
3:35 AM,28.8,24.6,84,30.02,10.0,NW,12.7,-,N/A,,Clear,310,2012-11-30 09:35:00
3:55 AM,28.2,24.3,85,30.03,10.0,NNW,8.1,-,N/A,,Clear,330,2012-11-30 09:55:00
4:15 AM,28.0,23.9,84,30.03,10.0,NNW,6.9,-,N/A,,Clear,330,2012-11-30 10:15:00
4:35 AM,27.1,23.7,87,30.05,10.0,NW,4.6,-,N/A,,Clear,320,2012-11-30 10:35:00
4:55 AM,27.3,23.7,86,30.05,10.0,NNW,5.8,-,N/A,,Clear,340,2012-11-30 10:55:00
5:15 AM,26.6,23.5,88,30.05,7.0,NW,6.9,-,N/A,,Clear,320,2012-11-30 11:15:00
5:35 AM,26.4,23.5,89,30.05,7.0,NW,6.9,-,N/A,,Clear,320,2012-11-30 11:35:00
5:55 AM,25.9,23.0,89,30.05,7.0,NNW,6.9,-,N/A,,Clear,330,2012-11-30 11:55:00
6:15 AM,25.0,22.3,89,30.06,7.0,NW,4.6,-,N/A,,Clear,320,2012-11-30 12:15:00
6:35 AM,24.8,22.5,91,30.08,7.0,Calm,Calm,-,N/A,,Clear,0,2012-11-30 12:35:00
6:55 AM,24.4,22.1,91,30.08,7.0,North,3.5,-,N/A,,Clear,360,2012-11-30 12:55:00
7:15 AM,23.4,21.4,92,30.08,5.0,NNW,3.5,-,N/A,,Clear,340,2012-11-30 13:15:00
7:35 AM,22.8,21.2,93,30.08,5.0,NNW,5.8,-,N/A,,Clear,340,2012-11-30 13:35:00
7:55 AM,22.8,21.0,93,30.08,5.0,North,5.8,-,N/A,,Clear,350,2012-11-30 13:55:00
8:15 AM,24.3,22.1,91,30.08,5.0,North,6.9,-,N/A,,Clear,350,2012-11-30 14:15:00
8:35 AM,25.3,22.8,90,30.09,5.0,NW,3.5,-,N/A,,Clear,320,2012-11-30 14:35:00
8:55 AM,26.8,23.9,89,30.08,5.0,North,6.9,-,N/A,,Clear,360,2012-11-30 14:55:00
9:15 AM,28.0,24.6,87,30.09,5.0,North,5.8,-,N/A,,Clear,350,2012-11-30 15:15:00
9:35 AM,29.1,25.3,86,30.08,5.0,North,6.9,-,N/A,,Clear,350,2012-11-30 15:35:00
9:55 AM,30.4,25.5,82,30.08,7.0,NNE,6.9,-,N/A,,Clear,20,2012-11-30 15:55:00
10:15 AM,31.6,26.1,80,30.09,7.0,North,4.6,-,N/A,,Clear,10,2012-11-30 16:15:00
10:35 AM,32.5,26.6,79,30.10,7.0,Calm,Calm,-,N/A,,Clear,0,2012-11-30 16:35:00
10:55 AM,34.0,27.1,76,30.10,7.0,Calm,Calm,-,N/A,,Clear,0,2012-11-30 16:55:00
11:15 AM,35.6,27.7,73,30.10,7.0,Calm,Calm,-,N/A,,Clear,0,2012-11-30 17:15:00
11:35 AM,37.0,28.0,70,30.10,7.0,West,4.6,-,N/A,,Clear,270,2012-11-30 17:35:00
11:55 AM,38.1,28.2,68,30.09,7.0,Calm,Calm,-,N/A,,Clear,0,2012-11-30 17:55:00
12:15 PM,39.4,28.4,65,30.07,7.0,NE,3.5,-,N/A,,Clear,40,2012-11-30 18:15:00
12:35 PM,40.6,28.8,63,30.06,7.0,NE,4.6,-,N/A,,Clear,40,2012-11-30 18:35:00
12:55 PM,42.6,29.1,59,30.04,10.0,Calm,Calm,-,N/A,,Clear,0,2012-11-30 18:55:00
1:15 PM,43.9,29.8,58,30.04,7.0,East,3.5,-,N/A,,Clear,90,2012-11-30 19:15:00
1:35 PM,45.5,30.0,55,30.03,7.0,ENE,4.6,-,N/A,,Clear,60,2012-11-30 19:35:00
1:55 PM,46.6,30.2,53,30.03,10.0,Calm,Calm,-,N/A,,Clear,0,2012-11-30 19:55:00
2:15 PM,48.0,30.9,52,30.02,10.0,East,3.5,-,N/A,,Clear,100,2012-11-30 20:15:00
2:35 PM,49.1,31.6,51,30.01,10.0,ESE,6.9,-,N/A,,Clear,120,2012-11-30 20:35:00
2:55 PM,49.6,32.0,51,30.00,10.0,SE,8.1,-,N/A,,Clear,140,2012-11-30 20:55:00
3:15 PM,49.3,32.0,51,30.00,10.0,SSE,8.1,-,N/A,,Clear,150,2012-11-30 21:15:00
3:35 PM,49.1,32.0,52,30.00,7.0,SSE,11.5,-,N/A,,Clear,160,2012-11-30 21:35:00
3:55 PM,47.7,31.8,54,29.98,10.0,SE,8.1,-,N/A,,Clear,140,2012-11-30 21:55:00
4:15 PM,46.8,31.8,56,29.99,7.0,SSE,6.9,-,N/A,,Clear,160,2012-11-30 22:15:00
4:35 PM,44.8,31.1,59,29.98,7.0,SE,8.1,-,N/A,,Clear,140,2012-11-30 22:35:00
4:55 PM,42.4,30.7,63,29.98,10.0,SE,6.9,-,N/A,,Clear,130,2012-11-30 22:55:00
5:15 PM,39.7,30.0,68,29.98,7.0,ESE,5.8,-,N/A,,Clear,120,2012-11-30 23:15:00
5:35 PM,39.0,29.8,70,30.00,10.0,SE,6.9,-,N/A,,Clear,140,2012-11-30 23:35:00
5:55 PM,38.3,30.0,72,29.99,7.0,ESE,6.9,-,N/A,,Clear,120,2012-11-30 23:55:00
6:15 PM,37.6,29.8,74,29.98,7.0,SE,5.8,-,N/A,,Clear,130,2012-12-01 00:15:00
6:35 PM,37.2,29.8,75,29.98,7.0,South,3.5,-,N/A,,Clear,170,2012-12-01 00:35:00
6:55 PM,35.6,29.5,78,29.98,7.0,South,3.5,-,N/A,,Clear,170,2012-12-01 00:55:00
7:15 PM,34.5,28.9,80,29.98,7.0,Calm,Calm,-,N/A,,Clear,0,2012-12-01 01:15:00
7:35 PM,33.6,28.8,82,29.97,7.0,SSE,3.5,-,N/A,,Clear,150,2012-12-01 01:35:00
7:55 PM,35.6,30.2,81,29.96,7.0,SSE,6.9,-,N/A,,Clear,160,2012-12-01 01:55:00
8:15 PM,34.2,29.7,84,29.96,7.0,South,8.1,-,N/A,,Clear,170,2012-12-01 02:15:00
8:35 PM,34.7,30.0,83,29.97,7.0,South,4.6,-,N/A,,Clear,180,2012-12-01 02:35:00
8:55 PM,34.9,30.0,82,29.96,7.0,Calm,Calm,-,N/A,,Clear,0,2012-12-01 02:55:00
9:15 PM,35.1,30.2,82,29.96,7.0,SSW,3.5,-,N/A,,Clear,200,2012-12-01 03:15:00
9:35 PM,33.6,29.5,85,29.96,7.0,Calm,Calm,-,N/A,,Clear,0,2012-12-01 03:35:00
10:15 PM,35.2,31.1,85,29.94,7.0,SSE,11.5,-,N/A,,Clear,160,2012-12-01 04:15:00
10:35 PM,36.3,31.6,83,29.93,7.0,SSE,12.7,-,N/A,,Clear,160,2012-12-01 04:35:00
10:55 PM,35.2,30.7,84,29.94,7.0,SSE,12.7,-,N/A,,Clear,160,2012-12-01 04:55:00
11:15 PM,34.3,30.7,87,29.94,7.0,South,9.2,-,N/A,,Clear,170,2012-12-01 05:15:00
11:35 PM,33.8,30.4,87,29.94,7.0,South,8.1,-,N/A,,Clear,170,2012-12-01 05:35:00
11:55 PM,32.9,30.0,89,29.93,5.0,SSW,6.9,-,N/A,,Clear,200,2012-12-01 05:55:00